EW2961 Weather Reports


Display with metric or nautical units.
time (UTC)temp
F
wind
direction
speed
MPH
gust
MPH
rain 1hr
in
rain 24hr
in
rain mn
in
humidity
%
barometer
mb
20260505213003 54 15 6.0 15.0 0.00 0.00 0.00 75 1007.5
20260505211503 55 12 5.0 17.0 0.00 0.00 0.00 76 1007.2
20260505210004 55 13 4.0 11.0 0.00 0.00 0.00 79 1006.6
20260505204503 54 2 8.0 19.0 0.00 0.00 0.00 79 1007.0
20260505203003 55 2 6.0 15.0 0.00 0.00 0.00 80 1007.2
20260505201503 56 12 5.0 15.0 0.00 0.00 0.00 79 1006.7
20260505200218 56 9 5.0 17.0 0.00 0.00 0.00 80 1006.6
20260505194503 56 4 6.0 14.0 0.00 0.00 0.00 81 1006.7
20260505193003 56 15 4.0 13.0 0.00 0.00 0.00 81 1006.7
20260505191503 56 22 4.0 13.0 0.00 0.00 0.00 83 1006.2
20260505190218 56 5 6.0 17.0 0.00 0.00 0.00 82 1006.1
20260505184503 56 1 4.0 16.0 0.00 0.00 0.00 83 1006.2
20260505183218 56 6 5.0 16.0 0.00 0.00 0.00 84 1006.0
20260505181717 56 360 5.0 16.0 0.00 0.00 0.00 85 1006.2
20260505180004 56 2 5.0 14.0 0.00 0.00 0.00 86 1006.1
20260505174718 56 11 6.0 14.0 0.00 0.00 0.00 86 1005.0
20260505173003 57 11 6.0 17.0 0.00 0.00 0.00 86 1005.4
20260505171503 57 16 5.0 18.0 0.00 0.00 0.00 87 1005.4
20260505170003 58 3 4.0 11.0 0.00 0.00 0.00 87 1004.7
20260505164504 58 5 6.0 15.0 0.00 0.00 0.00 87 1004.4
20260505163003 59 14 5.0 15.0 0.00 0.00 0.00 86 1004.3
20260505161504 60 2 4.0 15.0 0.00 0.00 0.00 86 1004.3
20260505153003 66 360 3.0 14.0 0.00 0.00 0.00 83 1003.2
20260505151717 68 4 3.0 11.0 0.00 0.00 0.00 82 1003.2
20260505140218 69 128 2.0 8.0 0.00 0.00 0.00 83 1002.1
20260505124718 66 67 1.0 6.0 0.00 0.00 0.00 85 1002.8
20260505123003 66 91 1.0 8.0 0.00 0.00 0.00 86 1002.5
20260505121503 66 84 2.0 9.0 0.00 0.00 0.00 86 1002.3
20260505120004 66 86 1.0 10.0 0.00 0.00 0.00 86 1002.3
20260505114504 66 82 2.0 7.0 0.00 0.00 0.00 86 1002.0
20260505113217 66 68 1.0 5.0 0.00 0.00 0.00 86 1002.2
20260505111718 66 87 1.0 7.0 0.00 0.00 0.00 86 1002.1
20260505101503 66 82 2.0 9.0 0.00 0.00 0.00 86 1001.2
20260505100003 66 74 2.0 8.0 0.00 0.00 0.00 86 1001.0
20260505094504 66 91 2.0 9.0 0.00 0.00 0.00 86 1000.9
20260505093003 66 82 2.0 8.0 0.00 0.00 0.00 85 1001.0
20260505091503 66 87 1.0 7.0 0.00 0.00 0.00 84 1001.1
20260505090004 67 84 2.0 8.0 0.00 0.00 0.00 82 1001.2
20260505084503 67 72 2.0 9.0 0.00 0.00 0.00 81 1001.2
20260505083003 68 80 2.0 5.0 0.00 0.00 0.00 80 1001.2
20260505081503 68 79 2.0 7.0 0.00 0.00 0.00 79 1001.4
20260505080218 68 102 1.0 7.0 0.00 0.00 0.00 79 1001.4
20260505074504 68 90 1.0 4.0 0.00 0.00 0.00 79 1001.7
20260505073003 68 91 1.0 6.0 0.00 0.00 0.00 78 1002.0
20260505071503 68 74 0.0 5.0 0.00 0.00 0.00 79 1002.1
20260505070217 68 74 0.0 3.0 0.00 0.00 0.00 79 1002.0
20260505064503 68 0 0.0 0.0 0.00 0.00 0.00 79 1002.5
20260505063003 68 304 0.0 3.0 0.00 0.00 0.00 79 1002.5
20260505061503 68 176 0.0 2.0 0.00 0.00 0.00 79 1002.1
20260505060003 68 177 0.0 6.0 0.00 0.00 0.00 78 1001.5
20260505054718 68 185 0.0 5.0 0.00 0.00 0.00 78 1001.4
20260505053217 68 182 1.0 8.0 0.00 0.00 0.00 77 1001.6
20260505051504 68 176 1.0 4.0 0.00 0.00 0.00 77 1001.8
20260505041503 68 169 1.0 8.0 0.00 0.00 0.00 74 1001.8
20260505040004 69 146 2.0 9.0 0.00 0.00 0.00 73 1002.1
20260505034504 69 158 3.0 16.0 0.00 0.00 0.00 70 1002.2
20260505033003 69 164 2.0 9.0 0.00 0.00 0.00 70 1002.5
20260505031503 69 167 1.0 7.0 0.00 0.00 0.00 69 1002.5
20260505030218 70 143 1.0 8.0 0.00 0.00 0.00 68 1002.8
20260505024503 70 169 1.0 7.0 0.00 0.00 0.00 66 1002.8
20260505023004 71 158 1.0 7.0 0.00 0.00 0.00 65 1002.9
20260505021503 71 166 2.0 9.0 0.00 0.00 0.00 65 1002.7
20260505020217 72 165 2.0 11.0 0.00 0.00 0.00 64 1002.9
20260505014504 72 151 2.0 7.0 0.00 0.00 0.00 63 1002.7
20260505013003 73 177 1.0 4.0 0.00 0.00 0.00 63 1002.8
20260505011718 74 179 1.0 6.0 0.00 0.00 0.00 61 1002.7
20260505010003 74 169 3.0 7.0 0.00 0.00 0.00 60 1002.6
20260505004503 75 176 2.0 10.0 0.00 0.00 0.00 59 1002.6
20260505003003 76 172 1.0 9.0 0.00 0.00 0.00 59 1002.7
20260505001718 77 185 1.0 5.0 0.00 0.00 0.00 58 1002.8
20260505000003 78 166 2.0 9.0 0.00 0.00 0.00 56 1003.0
20260504234718 78 168 1.0 6.0 0.00 0.00 0.00 57 1003.0
20260504233004 78 175 2.0 7.0 0.00 0.00 0.00 55 1003.0
20260504231503 79 163 3.0 12.0 0.00 0.00 0.00 54 1003.1
20260504230003 79 168 2.0 10.0 0.00 0.00 0.00 54 1003.1
20260504224503 80 164 3.0 11.0 0.00 0.00 0.00 53 1003.0
20260504223003 80 167 2.0 8.0 0.00 0.00 0.00 54 1003.0
20260504221719 81 156 3.0 14.0 0.00 0.00 0.00 52 1002.8
20260504220003 82 167 2.0 10.0 0.00 0.00 0.00 52 1002.9
20260504214504 82 164 3.0 13.0 0.00 0.00 0.00 51 1003.2